| time (UTC) | temp F | wind direction | speed MPH | gust MPH | rain 1hr in | rain 24hr in | rain mn in | humidity % | barometer mb |
| 20260507114445 | 41 | 143 | 0.0 | 0.0 | 0.00 | 0.00 | 0.00 | 97 | 1018.3 |
| 20260507113943 | 41 | 143 | 0.0 | 0.0 | 0.00 | 0.00 | 0.00 | 97 | 1018.3 |
| 20260507113439 | 41 | 143 | 0.0 | 0.0 | 0.00 | 0.00 | 0.00 | 97 | 1018.1 |
| 20260507112937 | 42 | 143 | 0.0 | 0.0 | 0.00 | 0.00 | 0.00 | 97 | 1018.1 |
| 20260507112435 | 41 | 143 | 0.0 | 0.0 | 0.00 | 0.00 | 0.00 | 97 | 1018.5 |
| 20260507111931 | 41 | 143 | 0.0 | 0.0 | 0.00 | 0.00 | 0.00 | 97 | 1018.3 |
| 20260507111429 | 41 | 143 | 0.0 | 0.0 | 0.00 | 0.00 | 0.00 | 97 | 1018.3 |
| 20260507110925 | 41 | 142 | 0.0 | 0.0 | 0.00 | 0.00 | 0.00 | 96 | 1018.2 |
| 20260507110421 | 41 | 143 | 0.0 | 0.0 | 0.00 | 0.00 | 0.00 | 96 | 1018.1 |
| 20260507105918 | 41 | 143 | 0.0 | 0.0 | 0.00 | 0.00 | 0.00 | 96 | 1017.9 |
| 20260507105414 | 41 | 143 | 0.0 | 0.0 | 0.00 | 0.00 | 0.00 | 96 | 1017.9 |
| 20260507104911 | 41 | 143 | 0.0 | 0.0 | 0.00 | 0.00 | 0.00 | 96 | 1018.0 |
| 20260507104408 | 41 | 176 | 0.0 | 0.0 | 0.00 | 0.00 | 0.00 | 96 | 1017.9 |
| 20260507103904 | 41 | 177 | 0.0 | 0.0 | 0.00 | 0.00 | 0.00 | 96 | 1018.1 |
| 20260507103401 | 41 | 190 | 0.0 | 0.0 | 0.00 | 0.00 | 0.00 | 96 | 1018.1 |
| 20260507102857 | 41 | 187 | 1.0 | 1.0 | 0.00 | 0.00 | 0.00 | 96 | 1018.0 |
| 20260507102353 | 41 | 164 | 0.0 | 0.0 | 0.00 | 0.00 | 0.00 | 96 | 1018.0 |
| 20260507101850 | 41 | 164 | 0.0 | 0.0 | 0.00 | 0.00 | 0.00 | 96 | 1018.0 |
| 20260507101345 | 41 | 164 | 0.0 | 0.0 | 0.00 | 0.00 | 0.00 | 96 | 1017.9 |
| 20260507100842 | 41 | 164 | 0.0 | 0.0 | 0.00 | 0.00 | 0.00 | 96 | 1018.0 |
| 20260507100341 | 41 | 173 | 0.0 | 0.0 | 0.00 | 0.00 | 0.00 | 95 | 1018.2 |
| 20260507095838 | 41 | 165 | 1.0 | 1.0 | 0.00 | 0.00 | 0.00 | 95 | 1017.9 |
| 20260507095334 | 41 | 165 | 0.0 | 0.0 | 0.00 | 0.00 | 0.00 | 95 | 1017.8 |
| 20260507094832 | 41 | 165 | 0.0 | 0.0 | 0.00 | 0.00 | 0.00 | 95 | 1017.9 |
| 20260507094328 | 41 | 165 | 0.0 | 0.0 | 0.00 | 0.00 | 0.00 | 95 | 1017.9 |
| 20260507093825 | 41 | 165 | 0.0 | 0.0 | 0.00 | 0.00 | 0.00 | 95 | 1017.8 |
| 20260507093324 | 42 | 165 | 0.0 | 0.0 | 0.00 | 0.00 | 0.00 | 95 | 1018.0 |
| 20260507092821 | 42 | 162 | 1.0 | 1.0 | 0.00 | 0.00 | 0.00 | 94 | 1018.0 |
| 20260507092318 | 42 | 111 | 1.0 | 1.0 | 0.00 | 0.00 | 0.00 | 94 | 1017.8 |
| 20260507091814 | 42 | 110 | 0.0 | 0.0 | 0.00 | 0.00 | 0.00 | 94 | 1017.8 |
| 20260507091310 | 42 | 110 | 0.0 | 0.0 | 0.00 | 0.00 | 0.00 | 94 | 1018.0 |
| 20260507090805 | 43 | 110 | 0.0 | 0.0 | 0.00 | 0.00 | 0.00 | 94 | 1018.2 |
| 20260507090302 | 43 | 110 | 0.0 | 0.0 | 0.00 | 0.00 | 0.00 | 94 | 1018.2 |
| 20260507085759 | 43 | 110 | 0.0 | 0.0 | 0.00 | 0.00 | 0.00 | 94 | 1018.3 |
| 20260507085256 | 43 | 110 | 0.0 | 0.0 | 0.00 | 0.00 | 0.00 | 94 | 1018.2 |
| 20260507084754 | 43 | 110 | 0.0 | 0.0 | 0.00 | 0.00 | 0.00 | 94 | 1018.5 |
| 20260507084249 | 43 | 110 | 0.0 | 0.0 | 0.00 | 0.00 | 0.00 | 94 | 1018.5 |
| 20260507083747 | 43 | 110 | 0.0 | 0.0 | 0.00 | 0.00 | 0.00 | 93 | 1018.5 |
| 20260507083244 | 44 | 110 | 0.0 | 0.0 | 0.00 | 0.00 | 0.00 | 93 | 1018.3 |
| 20260507082740 | 44 | 110 | 0.0 | 0.0 | 0.00 | 0.00 | 0.00 | 93 | 1018.1 |
| 20260507082236 | 44 | 110 | 0.0 | 0.0 | 0.00 | 0.00 | 0.00 | 94 | 1018.1 |
| 20260507081733 | 44 | 109 | 0.0 | 0.0 | 0.00 | 0.00 | 0.00 | 94 | 1018.2 |
| 20260507081229 | 43 | 109 | 0.0 | 0.0 | 0.00 | 0.00 | 0.00 | 94 | 1018.6 |
| 20260507080726 | 43 | 110 | 0.0 | 0.0 | 0.00 | 0.00 | 0.00 | 94 | 1018.6 |
| 20260507080222 | 43 | 109 | 0.0 | 0.0 | 0.00 | 0.00 | 0.00 | 93 | 1018.3 |
| 20260507075717 | 43 | 110 | 0.0 | 0.0 | 0.00 | 0.00 | 0.00 | 93 | 1018.0 |
| 20260507075214 | 43 | 110 | 0.0 | 0.0 | 0.00 | 0.00 | 0.00 | 93 | 1018.1 |
| 20260507074710 | 43 | 110 | 0.0 | 0.0 | 0.00 | 0.00 | 0.00 | 92 | 1018.1 |
| 20260507074209 | 43 | 110 | 0.0 | 0.0 | 0.00 | 0.00 | 0.00 | 92 | 1018.2 |
| 20260507073705 | 43 | 110 | 0.0 | 0.0 | 0.00 | 0.00 | 0.00 | 92 | 1018.0 |
| 20260507073201 | 44 | 110 | 0.0 | 0.0 | 0.00 | 0.00 | 0.00 | 92 | 1018.3 |
| 20260507072659 | 44 | 110 | 0.0 | 0.0 | 0.00 | 0.00 | 0.00 | 91 | 1018.3 |
| 20260507072156 | 44 | 110 | 0.0 | 0.0 | 0.00 | 0.00 | 0.00 | 91 | 1018.1 |
| 20260507071654 | 44 | 110 | 0.0 | 0.0 | 0.00 | 0.00 | 0.00 | 90 | 1018.2 |
| 20260507071149 | 44 | 110 | 0.0 | 0.0 | 0.00 | 0.00 | 0.00 | 90 | 1018.2 |
| 20260507070647 | 44 | 110 | 0.0 | 0.0 | 0.00 | 0.00 | 0.00 | 90 | 1018.3 |
| 20260507070143 | 44 | 110 | 0.0 | 0.0 | 0.00 | 0.00 | 0.00 | 89 | 1018.3 |
| 20260507065640 | 44 | 110 | 0.0 | 0.0 | 0.00 | 0.00 | 0.00 | 88 | 1018.3 |
| 20260507065137 | 45 | 110 | 0.0 | 0.0 | 0.00 | 0.00 | 0.00 | 88 | 1018.5 |
| 20260507064634 | 45 | 110 | 0.0 | 0.0 | 0.00 | 0.00 | 0.00 | 87 | 1018.3 |
| 20260507064133 | 45 | 110 | 0.0 | 0.0 | 0.00 | 0.00 | 0.00 | 86 | 1018.1 |
| 20260507063630 | 46 | 110 | 0.0 | 0.0 | 0.00 | 0.00 | 0.00 | 85 | 1018.3 |
| 20260507063127 | 46 | 110 | 0.0 | 0.0 | 0.00 | 0.00 | 0.00 | 83 | 1018.2 |
| 20260507062624 | 47 | 110 | 0.0 | 0.0 | 0.00 | 0.00 | 0.00 | 83 | 1017.9 |
| 20260507062121 | 47 | 110 | 0.0 | 0.0 | 0.00 | 0.00 | 0.00 | 80 | 1018.0 |
| 20260507061619 | 48 | 110 | 0.0 | 0.0 | 0.00 | 0.00 | 0.00 | 79 | 1018.2 |
| 20260507061117 | 48 | 109 | 0.0 | 0.0 | 0.00 | 0.00 | 0.00 | 77 | 1017.9 |
| 20260507060615 | 49 | 86 | 0.0 | 0.0 | 0.00 | 0.00 | 0.00 | 77 | 1018.2 |
| 20260507060111 | 49 | 86 | 0.0 | 0.0 | 0.00 | 0.00 | 0.00 | 76 | 1018.2 |
| 20260507055606 | 49 | 86 | 0.0 | 0.0 | 0.00 | 0.00 | 0.00 | 75 | 1018.1 |
| 20260507055103 | 50 | 86 | 0.0 | 0.0 | 0.00 | 0.00 | 0.00 | 74 | 1018.1 |
| 20260507054559 | 50 | 91 | 0.0 | 0.0 | 0.00 | 0.00 | 0.00 | 74 | 1018.1 |
| 20260507054056 | 50 | 87 | 0.0 | 1.0 | 0.00 | 0.00 | 0.00 | 73 | 1018.1 |
| 20260507053554 | 50 | 74 | 0.0 | 1.0 | 0.00 | 0.00 | 0.00 | 73 | 1018.1 |
| 20260507053052 | 51 | 70 | 0.0 | 0.0 | 0.00 | 0.00 | 0.00 | 72 | 1018.3 |
| 20260507052550 | 51 | 68 | 0.0 | 0.0 | 0.00 | 0.00 | 0.00 | 72 | 1018.0 |
| 20260507052046 | 51 | 85 | 0.0 | 0.0 | 0.00 | 0.00 | 0.00 | 71 | 1017.8 |
| 20260507051544 | 51 | 54 | 1.0 | 1.0 | 0.00 | 0.00 | 0.00 | 71 | 1017.9 |
| 20260507051040 | 50 | 68 | 0.0 | 1.0 | 0.00 | 0.00 | 0.00 | 72 | 1017.8 |
| 20260507050537 | 50 | 71 | 0.0 | 0.0 | 0.00 | 0.00 | 0.00 | 74 | 1017.8 |
| 20260507050033 | 50 | 46 | 1.0 | 2.0 | 0.00 | 0.00 | 0.00 | 75 | 1018.0 |
| 20260507045530 | 50 | 97 | 0.0 | 0.0 | 0.00 | 0.00 | 0.00 | 75 | 1017.9 |
| 20260507045027 | 50 | 107 | 0.0 | 0.0 | 0.00 | 0.00 | 0.00 | 75 | 1017.8 |
| 20260507044524 | 50 | 98 | 0.0 | 0.0 | 0.00 | 0.00 | 0.00 | 74 | 1017.8 |
| 20260507044021 | 50 | 103 | 0.0 | 0.0 | 0.00 | 0.00 | 0.00 | 73 | 1018.0 |
| 20260507043517 | 50 | 115 | 0.0 | 0.0 | 0.00 | 0.00 | 0.00 | 73 | 1018.0 |
| 20260507043014 | 51 | 99 | 0.0 | 0.0 | 0.00 | 0.00 | 0.00 | 72 | 1017.8 |
| 20260507042510 | 51 | 87 | 0.0 | 0.0 | 0.00 | 0.00 | 0.00 | 72 | 1018.0 |
| 20260507042006 | 51 | 86 | 0.0 | 0.0 | 0.00 | 0.00 | 0.00 | 72 | 1017.7 |
| 20260507041503 | 51 | 85 | 0.0 | 0.0 | 0.00 | 0.00 | 0.00 | 71 | 1017.8 |
| 20260507041000 | 52 | 83 | 1.0 | 1.0 | 0.00 | 0.00 | 0.00 | 70 | 1017.8 |
| 20260507040455 | 52 | 83 | 0.0 | 0.0 | 0.00 | 0.00 | 0.00 | 69 | 1017.8 |
| 20260507035951 | 52 | 87 | 0.0 | 0.0 | 0.00 | 0.00 | 0.00 | 69 | 1017.6 |
| 20260507035448 | 52 | 86 | 0.0 | 0.0 | 0.00 | 0.00 | 0.00 | 68 | 1017.8 |
| 20260507034945 | 53 | 90 | 0.0 | 0.0 | 0.00 | 0.00 | 0.00 | 67 | 1017.7 |
| 20260507034442 | 53 | 80 | 0.0 | 1.0 | 0.00 | 0.00 | 0.00 | 67 | 1017.8 |
| 20260507033940 | 53 | 12 | 1.0 | 2.0 | 0.00 | 0.00 | 0.00 | 66 | 1017.6 |
| 20260507033438 | 53 | 76 | 0.0 | 1.0 | 0.00 | 0.00 | 0.00 | 65 | 1017.4 |
| 20260507032934 | 54 | 84 | 1.0 | 2.0 | 0.00 | 0.00 | 0.00 | 65 | 1017.2 |
| 20260507032432 | 54 | 83 | 0.0 | 0.0 | 0.00 | 0.00 | 0.00 | 65 | 1017.5 |
| 20260507031927 | 54 | 65 | 1.0 | 1.0 | 0.00 | 0.00 | 0.00 | 64 | 1017.5 |
| 20260507031426 | 54 | 85 | 0.0 | 0.0 | 0.00 | 0.00 | 0.00 | 64 | 1017.4 |
| 20260507030921 | 54 | 72 | 0.0 | 1.0 | 0.00 | 0.00 | 0.00 | 63 | 1017.4 |
| 20260507030418 | 55 | 76 | 0.0 | 0.0 | 0.00 | 0.00 | 0.00 | 62 | 1017.5 |
| 20260507025915 | 55 | 77 | 0.0 | 1.0 | 0.00 | 0.00 | 0.00 | 62 | 1017.2 |
| 20260507025412 | 55 | 65 | 1.0 | 1.0 | 0.00 | 0.00 | 0.00 | 62 | 1017.3 |
| 20260507024910 | 55 | 29 | 1.0 | 2.0 | 0.00 | 0.00 | 0.00 | 62 | 1017.0 |
| 20260507024407 | 55 | 69 | 0.0 | 1.0 | 0.00 | 0.00 | 0.00 | 61 | 1017.2 |
| 20260507023903 | 55 | 352 | 2.0 | 3.0 | 0.00 | 0.00 | 0.00 | 61 | 1017.2 |
| 20260507023400 | 56 | 42 | 1.0 | 1.0 | 0.00 | 0.00 | 0.00 | 60 | 1017.2 |
| 20260507022857 | 56 | 76 | 1.0 | 1.0 | 0.00 | 0.00 | 0.00 | 60 | 1017.3 |
| 20260507022354 | 56 | 72 | 1.0 | 2.0 | 0.00 | 0.00 | 0.00 | 60 | 1016.9 |
| 20260507021850 | 56 | 49 | 2.0 | 3.0 | 0.00 | 0.00 | 0.00 | 60 | 1017.0 |
| 20260507021345 | 56 | 86 | 0.0 | 1.0 | 0.00 | 0.00 | 0.00 | 60 | 1017.0 |
| 20260507020843 | 56 | 350 | 1.0 | 2.0 | 0.00 | 0.00 | 0.00 | 59 | 1016.9 |
| 20260507020339 | 56 | 69 | 1.0 | 1.0 | 0.00 | 0.00 | 0.00 | 59 | 1016.8 |
| 20260507015837 | 56 | 85 | 0.0 | 0.0 | 0.00 | 0.00 | 0.00 | 60 | 1016.7 |
| 20260507015335 | 57 | 37 | 1.0 | 2.0 | 0.00 | 0.00 | 0.00 | 58 | 1016.7 |
| 20260507014831 | 57 | 92 | 0.0 | 0.0 | 0.00 | 0.00 | 0.00 | 58 | 1016.6 |
| 20260507014327 | 57 | 88 | 0.0 | 0.0 | 0.00 | 0.00 | 0.00 | 58 | 1016.6 |
| 20260507013824 | 57 | 96 | 0.0 | 0.0 | 0.00 | 0.00 | 0.00 | 57 | 1016.3 |
| 20260507013321 | 58 | 87 | 0.0 | 0.0 | 0.00 | 0.00 | 0.00 | 57 | 1016.2 |
| 20260507012819 | 58 | 81 | 0.0 | 0.0 | 0.00 | 0.00 | 0.00 | 56 | 1016.3 |
| 20260507012314 | 58 | 98 | 0.0 | 0.0 | 0.00 | 0.00 | 0.00 | 56 | 1016.2 |
| 20260507011811 | 59 | 68 | 0.0 | 1.0 | 0.00 | 0.00 | 0.00 | 56 | 1016.3 |
| 20260507011308 | 59 | 189 | 1.0 | 2.0 | 0.00 | 0.00 | 0.00 | 54 | 1016.3 |
| 20260507010808 | 59 | 48 | 2.0 | 2.0 | 0.00 | 0.00 | 0.00 | 54 | 1016.1 |
| 20260507010304 | 60 | 81 | 0.0 | 1.0 | 0.00 | 0.00 | 0.00 | 55 | 1016.1 |
| 20260507005801 | 60 | 160 | 2.0 | 2.0 | 0.00 | 0.00 | 0.00 | 55 | 1016.0 |
| 20260507005257 | 60 | 116 | 1.0 | 1.0 | 0.00 | 0.00 | 0.00 | 54 | 1016.0 |
| 20260507004754 | 61 | 89 | 0.0 | 0.0 | 0.00 | 0.00 | 0.00 | 53 | 1016.2 |
| 20260507004252 | 61 | 149 | 0.0 | 0.0 | 0.00 | 0.00 | 0.00 | 52 | 1016.0 |
| 20260507003748 | 62 | 30 | 1.0 | 3.0 | 0.00 | 0.00 | 0.00 | 49 | 1015.9 |
| 20260507003243 | 63 | 96 | 0.0 | 0.0 | 0.00 | 0.00 | 0.00 | 49 | 1015.8 |
| 20260507002739 | 63 | 64 | 1.0 | 2.0 | 0.00 | 0.00 | 0.00 | 48 | 1015.9 |
| 20260507002236 | 64 | 6 | 1.0 | 2.0 | 0.00 | 0.00 | 0.00 | 47 | 1015.8 |
| 20260507001732 | 63 | 188 | 1.0 | 2.0 | 0.00 | 0.00 | 0.00 | 48 | 1015.6 |
| 20260507001230 | 63 | 179 | 2.0 | 2.0 | 0.00 | 0.00 | 0.00 | 47 | 1015.7 |
| 20260507000726 | 63 | 114 | 0.0 | 0.0 | 0.00 | 0.00 | 0.00 | 47 | 1015.6 |
| 20260507000222 | 63 | 51 | 1.0 | 1.0 | 0.00 | 0.00 | 0.00 | 46 | 1015.7 |
| 20260506235719 | 63 | 169 | 0.0 | 2.0 | 0.00 | 0.00 | 0.00 | 46 | 1015.7 |
| 20260506235214 | 63 | 122 | 3.0 | 4.0 | 0.00 | 0.00 | 0.00 | 45 | 1015.8 |
| 20260506234711 | 63 | 148 | 1.0 | 2.0 | 0.00 | 0.00 | 0.00 | 46 | 1015.6 |
| 20260506234209 | 64 | 82 | 2.0 | 2.0 | 0.00 | 0.00 | 0.00 | 46 | 1015.5 |
| 20260506233706 | 64 | 42 | 4.0 | 6.0 | 0.00 | 0.00 | 0.00 | 46 | 1015.6 |
| 20260506233202 | 64 | 75 | 1.0 | 1.0 | 0.00 | 0.00 | 0.00 | 47 | 1015.6 |
| 20260506232659 | 64 | 89 | 2.0 | 3.0 | 0.00 | 0.00 | 0.00 | 47 | 1015.6 |
| 20260506232154 | 64 | 74 | 2.0 | 3.0 | 0.00 | 0.00 | 0.00 | 47 | 1015.5 |
| 20260506231651 | 64 | 187 | 2.0 | 2.0 | 0.00 | 0.00 | 0.00 | 47 | 1015.5 |
| 20260506231150 | 64 | 179 | 3.0 | 6.0 | 0.00 | 0.00 | 0.00 | 46 | 1015.3 |
| 20260506230646 | 64 | 9 | 2.0 | 4.0 | 0.00 | 0.00 | 0.00 | 47 | 1015.3 |
| 20260506230143 | 64 | 129 | 2.0 | 4.0 | 0.00 | 0.00 | 0.00 | 49 | 1015.2 |
| 20260506225640 | 63 | 155 | 2.0 | 3.0 | 0.00 | 0.00 | 0.00 | 48 | 1015.2 |
| 20260506225137 | 63 | 147 | 6.0 | 7.0 | 0.00 | 0.00 | 0.00 | 47 | 1015.2 |
| 20260506224633 | 64 | 143 | 5.0 | 6.0 | 0.00 | 0.00 | 0.00 | 49 | 1015.2 |
| 20260506224130 | 64 | 42 | 1.0 | 2.0 | 0.00 | 0.00 | 0.00 | 48 | 1015.2 |
| 20260506223626 | 65 | 49 | 3.0 | 8.0 | 0.00 | 0.00 | 0.00 | 48 | 1015.0 |
| 20260506223122 | 65 | 16 | 2.0 | 4.0 | 0.00 | 0.00 | 0.00 | 47 | 1015.0 |
| 20260506222619 | 64 | 170 | 2.0 | 2.0 | 0.00 | 0.00 | 0.00 | 48 | 1014.9 |
| 20260506222115 | 64 | 157 | 2.0 | 4.0 | 0.00 | 0.00 | 0.00 | 49 | 1014.8 |
| 20260506221613 | 64 | 166 | 7.0 | 9.0 | 0.00 | 0.00 | 0.00 | 47 | 1014.8 |
| 20260506221111 | 65 | 53 | 3.0 | 4.0 | 0.00 | 0.00 | 0.00 | 49 | 1014.8 |
| 20260506220607 | 64 | 75 | 2.0 | 3.0 | 0.00 | 0.00 | 0.00 | 51 | 1014.7 |
| 20260506215559 | 64 | 205 | 5.0 | 7.0 | 0.00 | 0.00 | 0.00 | 48 | 1014.6 |
| 20260506215055 | 63 | 41 | 3.0 | 3.0 | 0.00 | 0.00 | 0.00 | 50 | 1014.5 |
| 20260506214552 | 64 | 128 | 1.0 | 4.0 | 0.00 | 0.00 | 0.00 | 50 | 1014.7 |
| 20260506214049 | 64 | 137 | 2.0 | 3.0 | 0.00 | 0.00 | 0.00 | 49 | 1014.7 |
| 20260506213547 | 65 | 52 | 2.0 | 3.0 | 0.00 | 0.00 | 0.00 | 50 | 1014.8 |
| 20260506213044 | 65 | 154 | 4.0 | 6.0 | 0.00 | 0.00 | 0.00 | 49 | 1014.7 |
| 20260506212541 | 66 | 295 | 2.0 | 4.0 | 0.00 | 0.00 | 0.00 | 48 | 1014.8 |
| 20260506212036 | 64 | 152 | 2.0 | 2.0 | 0.00 | 0.00 | 0.00 | 53 | 1014.8 |
| 20260506211532 | 64 | 15 | 3.0 | 6.0 | 0.00 | 0.00 | 0.00 | 52 | 1015.0 |
| 20260506211030 | 63 | 30 | 4.0 | 7.0 | 0.00 | 0.00 | 0.00 | 51 | 1015.2 |
| 20260506210526 | 62 | 83 | 3.0 | 3.0 | 0.00 | 0.00 | 0.00 | 54 | 1015.0 |
| 20260506210023 | 63 | 41 | 2.0 | 3.0 | 0.00 | 0.00 | 0.00 | 52 | 1015.4 |
| 20260506205520 | 63 | 52 | 2.0 | 3.0 | 0.00 | 0.00 | 0.00 | 53 | 1015.3 |
| 20260506205015 | 63 | 169 | 2.0 | 2.0 | 0.00 | 0.00 | 0.00 | 54 | 1015.3 |
| 20260506204513 | 63 | 65 | 4.0 | 4.0 | 0.00 | 0.00 | 0.00 | 52 | 1015.4 |
| 20260506204010 | 64 | 120 | 1.0 | 1.0 | 0.00 | 0.00 | 0.00 | 53 | 1015.4 |
| 20260506203508 | 64 | 284 | 4.0 | 7.0 | 0.00 | 0.00 | 0.00 | 52 | 1015.5 |
| 20260506203004 | 65 | 65 | 4.0 | 6.0 | 0.00 | 0.00 | 0.00 | 50 | 1015.5 |
| 20260506202502 | 65 | 344 | 2.0 | 4.0 | 0.00 | 0.00 | 0.00 | 53 | 1015.3 |
| 20260506201957 | 64 | 62 | 5.0 | 8.0 | 0.00 | 0.00 | 0.00 | 51 | 1015.5 |
| 20260506201455 | 63 | 148 | 4.0 | 4.0 | 0.00 | 0.00 | 0.00 | 52 | 1015.6 |
| 20260506200952 | 63 | 110 | 1.0 | 2.0 | 0.00 | 0.00 | 0.00 | 53 | 1015.5 |
| 20260506200449 | 63 | 159 | 2.0 | 2.0 | 0.00 | 0.00 | 0.00 | 53 | 1015.7 |
| 20260506195945 | 64 | 63 | 2.0 | 3.0 | 0.00 | 0.00 | 0.00 | 53 | 1015.7 |
| 20260506195442 | 66 | 170 | 1.0 | 1.0 | 0.00 | 0.00 | 0.00 | 53 | 1015.7 |
| 20260506194938 | 66 | 16 | 1.0 | 2.0 | 0.00 | 0.00 | 0.00 | 54 | 1015.7 |
| 20260506194436 | 64 | 116 | 2.0 | 2.0 | 0.00 | 0.00 | 0.00 | 53 | 1015.7 |
| 20260506193932 | 63 | 47 | 4.0 | 6.0 | 0.00 | 0.00 | 0.00 | 52 | 1015.6 |
| 20260506193430 | 63 | 61 | 2.0 | 2.0 | 0.00 | 0.00 | 0.00 | 53 | 1015.8 |
| 20260506192926 | 63 | 175 | 1.0 | 2.0 | 0.00 | 0.00 | 0.00 | 55 | 1016.0 |
| 20260506192423 | 63 | 27 | 1.0 | 1.0 | 0.00 | 0.00 | 0.00 | 56 | 1016.1 |
| 20260506191920 | 63 | 83 | 0.0 | 1.0 | 0.00 | 0.00 | 0.00 | 54 | 1015.9 |
| 20260506191416 | 62 | 163 | 0.0 | 1.0 | 0.00 | 0.00 | 0.00 | 55 | 1016.2 |
| 20260506190914 | 63 | 58 | 2.0 | 3.0 | 0.00 | 0.00 | 0.00 | 56 | 1016.1 |
| 20260506190410 | 63 | 72 | 1.0 | 2.0 | 0.00 | 0.00 | 0.00 | 56 | 1016.1 |
| 20260506185907 | 64 | 44 | 3.0 | 4.0 | 0.00 | 0.00 | 0.00 | 53 | 1016.0 |
| 20260506185404 | 64 | 171 | 5.0 | 7.0 | 0.00 | 0.00 | 0.00 | 51 | 1016.2 |
| 20260506184901 | 62 | 193 | 0.0 | 1.0 | 0.00 | 0.00 | 0.00 | 57 | 1016.3 |
| 20260506184358 | 63 | 102 | 2.0 | 2.0 | 0.00 | 0.00 | 0.00 | 53 | 1016.5 |
| 20260506183855 | 63 | 13 | 2.0 | 3.0 | 0.00 | 0.00 | 0.00 | 52 | 1016.3 |
| 20260506183350 | 63 | 179 | 5.0 | 8.0 | 0.00 | 0.00 | 0.00 | 54 | 1016.4 |
| 20260506182848 | 62 | 148 | 3.0 | 4.0 | 0.00 | 0.00 | 0.00 | 54 | 1016.4 |
| 20260506182345 | 64 | 183 | 2.0 | 3.0 | 0.00 | 0.00 | 0.00 | 55 | 1016.5 |
| 20260506181842 | 64 | 249 | 3.0 | 6.0 | 0.00 | 0.00 | 0.00 | 53 | 1016.5 |
| 20260506181340 | 63 | 113 | 3.0 | 4.0 | 0.00 | 0.00 | 0.00 | 53 | 1016.6 |
| 20260506180837 | 64 | 108 | 1.0 | 2.0 | 0.00 | 0.00 | 0.00 | 53 | 1016.9 |
| 20260506180333 | 64 | 178 | 1.0 | 1.0 | 0.00 | 0.00 | 0.00 | 53 | 1017.0 |
| 20260506175824 | 62 | 76 | 2.0 | 3.0 | 0.00 | 0.00 | 0.00 | 54 | 1017.0 |
| 20260506175321 | 62 | 351 | 3.0 | 4.0 | 0.00 | 0.00 | 0.00 | 55 | 1017.2 |
| 20260506174818 | 62 | 8 | 4.0 | 6.0 | 0.00 | 0.00 | 0.00 | 55 | 1017.4 |
| 20260506174315 | 61 | 120 | 1.0 | 1.0 | 0.00 | 0.00 | 0.00 | 56 | 1017.4 |
| 20260506173813 | 62 | 97 | 2.0 | 2.0 | 0.00 | 0.00 | 0.00 | 55 | 1017.5 |
| 20260506173310 | 62 | 97 | 4.0 | 6.0 | 0.00 | 0.00 | 0.00 | 53 | 1017.6 |
| 20260506172807 | 61 | 80 | 3.0 | 4.0 | 0.00 | 0.00 | 0.00 | 54 | 1017.7 |
| 20260506172306 | 61 | 36 | 4.0 | 8.0 | 0.00 | 0.00 | 0.00 | 54 | 1018.0 |
| 20260506171800 | 61 | 38 | 2.0 | 3.0 | 0.00 | 0.00 | 0.00 | 60 | 1017.9 |
| 20260506171257 | 60 | 48 | 1.0 | 2.0 | 0.00 | 0.00 | 0.00 | 57 | 1018.2 |
| 20260506170755 | 61 | 234 | 4.0 | 4.0 | 0.00 | 0.00 | 0.00 | 55 | 1018.2 |
| 20260506170251 | 60 | 25 | 5.0 | 9.0 | 0.00 | 0.00 | 0.00 | 55 | 1018.2 |
| 20260506165750 | 60 | 129 | 3.0 | 3.0 | 0.00 | 0.00 | 0.00 | 57 | 1018.1 |
| 20260506165247 | 60 | 353 | 4.0 | 6.0 | 0.00 | 0.00 | 0.00 | 57 | 1018.1 |
| 20260506164743 | 60 | 51 | 2.0 | 4.0 | 0.00 | 0.00 | 0.00 | 58 | 1018.0 |
| 20260506164240 | 60 | 81 | 0.0 | 1.0 | 0.00 | 0.00 | 0.00 | 59 | 1017.9 |
| 20260506163737 | 60 | 115 | 4.0 | 6.0 | 0.00 | 0.00 | 0.00 | 57 | 1017.8 |
| 20260506163231 | 60 | 323 | 1.0 | 2.0 | 0.00 | 0.00 | 0.00 | 59 | 1017.9 |
| 20260506162728 | 58 | 47 | 2.0 | 2.0 | 0.00 | 0.00 | 0.00 | 62 | 1017.9 |
| 20260506162226 | 57 | 120 | 1.0 | 1.0 | 0.00 | 0.00 | 0.00 | 65 | 1017.8 |
| 20260506161723 | 57 | 90 | 2.0 | 3.0 | 0.00 | 0.00 | 0.00 | 64 | 1017.8 |
| 20260506161220 | 57 | 114 | 1.0 | 1.0 | 0.00 | 0.00 | 0.00 | 64 | 1017.7 |
| 20260506160718 | 57 | 128 | 1.0 | 1.0 | 0.00 | 0.00 | 0.00 | 64 | 1017.5 |
| 20260506160214 | 56 | 91 | 0.0 | 1.0 | 0.00 | 0.00 | 0.00 | 64 | 1017.6 |
| 20260506155713 | 55 | 158 | 0.0 | 1.0 | 0.00 | 0.00 | 0.00 | 66 | 1017.6 |
| 20260506155209 | 56 | 46 | 6.0 | 7.0 | 0.00 | 0.00 | 0.00 | 63 | 1017.2 |
| 20260506153312 | 58 | 188 | 1.0 | 1.0 | 0.00 | 0.00 | 0.00 | 64 | 1016.2 |
| 20260506152808 | 58 | 166 | 1.0 | 1.0 | 0.00 | 0.00 | 0.00 | 65 | 1016.4 |
| 20260506152306 | 58 | 169 | 2.0 | 2.0 | 0.00 | 0.00 | 0.00 | 62 | 1016.1 |
| 20260506151804 | 57 | 165 | 1.0 | 2.0 | 0.00 | 0.00 | 0.00 | 65 | 1015.9 |
| 20260506151300 | 57 | 345 | 4.0 | 7.0 | 0.00 | 0.00 | 0.00 | 63 | 1016.4 |
| 20260506150757 | 57 | 198 | 2.0 | 2.0 | 0.00 | 0.00 | 0.00 | 65 | 1016.5 |
| 20260506150303 | 56 | 35 | 2.0 | 4.0 | 0.00 | 0.00 | 0.00 | 65 | 1016.5 |
| 20260506145752 | 55 | 351 | 1.0 | 2.0 | 0.00 | 0.00 | 0.00 | 66 | 1016.6 |
| 20260506145248 | 55 | 152 | 1.0 | 1.0 | 0.00 | 0.00 | 0.00 | 66 | 1016.5 |
| 20260506144745 | 55 | 176 | 3.0 | 4.0 | 0.00 | 0.00 | 0.00 | 66 | 1016.5 |
| 20260506144242 | 55 | 178 | 3.0 | 4.0 | 0.00 | 0.00 | 0.00 | 66 | 1016.2 |
| 20260506143740 | 55 | 200 | 3.0 | 4.0 | 0.00 | 0.00 | 0.00 | 67 | 1016.2 |
| 20260506143237 | 55 | 94 | 1.0 | 2.0 | 0.00 | 0.00 | 0.00 | 68 | 1016.2 |
| 20260506142735 | 55 | 207 | 3.0 | 6.0 | 0.00 | 0.00 | 0.00 | 68 | 1016.2 |
| 20260506142233 | 55 | 168 | 2.0 | 3.0 | 0.00 | 0.00 | 0.00 | 71 | 1016.4 |
| 20260506141731 | 54 | 88 | 2.0 | 2.0 | 0.00 | 0.00 | 0.00 | 72 | 1016.1 |
| 20260506141229 | 53 | 131 | 0.0 | 0.0 | 0.00 | 0.00 | 0.00 | 74 | 1016.3 |
| 20260506140726 | 53 | 118 | 2.0 | 3.0 | 0.00 | 0.00 | 0.00 | 75 | 1016.1 |
| 20260506140223 | 52 | 131 | 2.0 | 3.0 | 0.00 | 0.00 | 0.00 | 75 | 1016.4 |
| 20260506135720 | 52 | 233 | 1.0 | 1.0 | 0.00 | 0.00 | 0.00 | 77 | 1016.3 |
| 20260506135216 | 52 | 156 | 3.0 | 4.0 | 0.00 | 0.00 | 0.00 | 76 | 1016.4 |
| 20260506134713 | 51 | 157 | 2.0 | 6.0 | 0.00 | 0.00 | 0.00 | 76 | 1016.5 |
| 20260506134209 | 51 | 298 | 6.0 | 8.0 | 0.00 | 0.00 | 0.00 | 76 | 1016.6 |
| 20260506133706 | 51 | 320 | 4.0 | 6.0 | 0.00 | 0.00 | 0.00 | 78 | 1016.6 |
| 20260506133203 | 51 | 163 | 2.0 | 3.0 | 0.00 | 0.00 | 0.00 | 78 | 1016.6 |
| 20260506132700 | 51 | 38 | 2.0 | 2.0 | 0.00 | 0.00 | 0.00 | 77 | 1016.7 |
| 20260506132157 | 50 | 43 | 2.0 | 4.0 | 0.00 | 0.00 | 0.00 | 79 | 1016.5 |
| 20260506131655 | 50 | 157 | 3.0 | 3.0 | 0.00 | 0.00 | 0.00 | 79 | 1016.4 |
| 20260506131151 | 50 | 56 | 2.0 | 3.0 | 0.00 | 0.00 | 0.00 | 81 | 1016.4 |
| 20260506130648 | 50 | 151 | 3.0 | 3.0 | 0.00 | 0.00 | 0.00 | 81 | 1016.4 |
| 20260506130145 | 50 | 55 | 5.0 | 7.0 | 0.00 | 0.00 | 0.00 | 82 | 1016.7 |
| 20260506125643 | 50 | 158 | 4.0 | 7.0 | 0.00 | 0.00 | 0.00 | 82 | 1016.6 |
| 20260506125141 | 50 | 159 | 3.0 | 4.0 | 0.00 | 0.00 | 0.00 | 82 | 1016.7 |
| 20260506124639 | 50 | 82 | 3.0 | 3.0 | 0.00 | 0.00 | 0.00 | 82 | 1016.4 |
| 20260506124136 | 50 | 186 | 4.0 | 4.0 | 0.00 | 0.00 | 0.00 | 83 | 1016.5 |
| 20260506123633 | 49 | 36 | 3.0 | 4.0 | 0.00 | 0.00 | 0.00 | 83 | 1016.0 |
| 20260506123132 | 49 | 49 | 1.0 | 2.0 | 0.00 | 0.00 | 0.00 | 84 | 1016.0 |
| 20260506122628 | 49 | 204 | 0.0 | 1.0 | 0.00 | 0.00 | 0.00 | 84 | 1015.9 |
| 20260506122126 | 49 | 161 | 3.0 | 4.0 | 0.00 | 0.00 | 0.00 | 84 | 1016.0 |
| 20260506121623 | 49 | 118 | 2.0 | 2.0 | 0.00 | 0.00 | 0.00 | 85 | 1015.7 |
| 20260506121119 | 49 | 62 | 3.0 | 6.0 | 0.00 | 0.00 | 0.00 | 85 | 1015.8 |
| 20260506120618 | 49 | 43 | 4.0 | 9.0 | 0.00 | 0.00 | 0.00 | 85 | 1015.8 |
| 20260506120115 | 49 | 48 | 3.0 | 6.0 | 0.00 | 0.00 | 0.00 | 85 | 1015.9 |
| 20260506115613 | 49 | 81 | 2.0 | 2.0 | 0.00 | 0.00 | 0.00 | 85 | 1015.8 |
| 20260506115111 | 49 | 38 | 3.0 | 4.0 | 0.00 | 0.00 | 0.00 | 85 | 1015.6 |